TimeEST,TemperatureF,Dew PointF,Humidity,Sea Level PressureIn,VisibilityMPH,Wind Direction,Wind SpeedMPH,Gust SpeedMPH,PrecipitationIn,Events,Conditions,WindDirDegrees,DateUTC
12:15 AM,23.0,16.7,77,29.63,10.0,West,8.1,-,N/A,,Overcast,260,2013-03-04 05:15:00
12:35 AM,22.6,16.3,77,29.63,10.0,SW,5.8,-,N/A,,Overcast,230,2013-03-04 05:35:00
12:55 AM,22.6,16.7,78,29.63,10.0,SW,3.5,-,N/A,,Overcast,230,2013-03-04 05:55:00
1:15 AM,22.5,16.7,79,29.64,10.0,Calm,Calm,-,N/A,,Overcast,0,2013-03-04 06:15:00
1:35 AM,22.3,16.5,79,29.64,10.0,WSW,4.6,-,N/A,,Overcast,240,2013-03-04 06:35:00
1:55 AM,22.1,16.7,80,29.63,10.0,West,3.5,-,N/A,,Overcast,260,2013-03-04 06:55:00
2:15 AM,22.1,16.3,79,29.63,10.0,Calm,Calm,-,N/A,,Overcast,0,2013-03-04 07:15:00
3:15 AM,21.9,16.7,80,29.64,10.0,WSW,4.6,-,N/A,,Overcast,240,2013-03-04 08:15:00
3:35 AM,21.9,16.5,80,29.64,10.0,SW,4.6,-,N/A,,Overcast,220,2013-03-04 08:35:00
3:55 AM,21.7,16.5,80,29.64,10.0,Calm,Calm,-,N/A,,Overcast,0,2013-03-04 08:55:00
4:15 AM,21.7,16.0,78,29.64,10.0,Calm,Calm,-,N/A,,Overcast,0,2013-03-04 09:15:00
4:35 AM,21.7,15.8,78,29.64,10.0,WSW,3.5,-,N/A,,Overcast,250,2013-03-04 09:35:00
4:55 AM,21.7,15.8,78,29.64,10.0,Calm,Calm,-,N/A,,Overcast,0,2013-03-04 09:55:00
5:15 AM,21.6,16.2,80,29.63,10.0,SW,4.6,-,N/A,,Overcast,220,2013-03-04 10:15:00
5:35 AM,21.6,15.8,78,29.64,10.0,Calm,Calm,-,N/A,,Overcast,0,2013-03-04 10:35:00
5:55 AM,21.2,16.2,81,29.64,10.0,Calm,Calm,-,N/A,,Overcast,0,2013-03-04 10:55:00
6:15 AM,21.2,16.0,80,29.65,10.0,WSW,3.5,-,N/A,,Overcast,240,2013-03-04 11:15:00
6:35 AM,21.2,16.2,81,29.64,10.0,Calm,Calm,-,N/A,,Overcast,0,2013-03-04 11:35:00
6:55 AM,21.2,15.8,80,29.65,10.0,Calm,Calm,-,N/A,,Overcast,0,2013-03-04 11:55:00
7:15 AM,21.2,16.0,80,29.65,7.0,Calm,Calm,-,N/A,,Overcast,0,2013-03-04 12:15:00
7:35 AM,21.2,16.3,82,29.65,5.0,NNW,4.6,-,N/A,,Haze,340,2013-03-04 12:35:00
7:55 AM,20.7,15.8,81,29.65,3.0,NW,3.5,-,N/A,Snow,Light Snow,320,2013-03-04 12:55:00
8:15 AM,21.2,16.7,83,29.65,5.0,Calm,Calm,-,N/A,Snow,Light Snow,0,2013-03-04 13:15:00
8:55 AM,21.2,16.3,82,29.65,3.0,NNE,3.5,-,N/A,Snow,Light Snow,20,2013-03-04 13:55:00
9:15 AM,21.0,15.6,80,29.65,2.5,Calm,Calm,-,N/A,Snow,Light Snow,0,2013-03-04 14:15:00
9:35 AM,21.0,14.9,77,29.65,1.8,NW,3.5,-,N/A,Snow,Light Snow,310,2013-03-04 14:35:00
9:55 AM,21.2,14.9,77,29.66,3.0,WNW,3.5,-,N/A,Snow,Light Snow,300,2013-03-04 14:55:00
10:15 AM,21.6,14.0,73,29.66,2.5,North,9.2,-,N/A,Snow,Light Snow,350,2013-03-04 15:15:00
10:35 AM,22.1,15.6,76,29.65,2.5,WSW,3.5,-,N/A,Snow,Light Snow,250,2013-03-04 15:35:00
10:55 AM,21.6,14.0,73,29.66,3.0,NNW,12.7,-,N/A,Snow,Light Snow,340,2013-03-04 15:55:00
11:15 AM,21.2,14.0,74,29.65,1.0,NNW,8.1,-,N/A,Snow,Light Snow,340,2013-03-04 16:15:00
11:35 AM,21.2,14.7,76,29.66,1.2,NNW,10.4,-,N/A,Snow,Light Snow,330,2013-03-04 16:35:00
11:55 AM,21.2,14.5,75,29.65,1.8,NW,8.1,-,N/A,Snow,Light Snow,310,2013-03-04 16:55:00
12:15 PM,21.6,13.8,72,29.66,2.0,NW,11.5,-,N/A,Snow,Light Snow,320,2013-03-04 17:15:00
12:35 PM,21.7,14.7,74,29.66,2.0,NNW,8.1,-,N/A,Snow,Light Snow,340,2013-03-04 17:35:00
12:55 PM,22.1,14.4,72,29.66,1.5,WNW,10.4,-,N/A,Snow,Light Snow,300,2013-03-04 17:55:00
1:15 PM,22.1,14.0,71,29.66,7.0,NNW,9.2,-,N/A,Snow,Light Snow,340,2013-03-04 18:15:00
1:35 PM,22.1,13.3,69,29.66,10.0,NW,9.2,-,N/A,,Overcast,320,2013-03-04 18:35:00
1:55 PM,22.1,12.9,68,29.67,10.0,NW,8.1,-,N/A,,Overcast,310,2013-03-04 18:55:00
2:15 PM,21.7,13.6,71,29.67,10.0,NNW,8.1,-,N/A,,Overcast,330,2013-03-04 19:15:00
2:35 PM,21.9,14.0,72,29.68,7.0,NW,8.1,-,N/A,,Overcast,320,2013-03-04 19:35:00
2:55 PM,21.6,14.2,73,29.68,10.0,NW,4.6,-,N/A,,Overcast,320,2013-03-04 19:55:00
3:15 PM,21.9,14.9,74,29.68,7.0,NNW,5.8,-,N/A,Snow,Light Snow,340,2013-03-04 20:15:00
3:35 PM,22.1,14.9,74,29.69,7.0,NNW,9.2,-,N/A,Snow,Light Snow,330,2013-03-04 20:35:00
3:55 PM,21.9,14.9,74,29.70,5.0,NW,6.9,-,N/A,,Haze,320,2013-03-04 20:55:00
4:15 PM,21.2,15.4,78,29.70,7.0,NW,8.1,-,N/A,,Overcast,310,2013-03-04 21:15:00
4:35 PM,21.2,14.9,77,29.72,10.0,NW,9.2,-,N/A,,Overcast,310,2013-03-04 21:35:00
4:55 PM,21.7,14.7,74,29.72,7.0,WNW,9.2,-,N/A,,Overcast,290,2013-03-04 21:55:00
5:15 PM,21.2,14.4,75,29.73,10.0,NW,4.6,-,N/A,,Overcast,310,2013-03-04 22:15:00
5:35 PM,21.6,14.7,75,29.75,10.0,NW,9.2,-,N/A,,Overcast,320,2013-03-04 22:35:00
5:55 PM,21.0,15.6,80,29.76,5.0,NW,4.6,-,N/A,,Haze,310,2013-03-04 22:55:00
6:35 PM,20.8,16.2,82,29.77,10.0,NW,4.6,-,N/A,,Overcast,310,2013-03-04 23:35:00
6:55 PM,21.0,16.3,82,29.77,10.0,NW,3.5,-,N/A,,Overcast,310,2013-03-04 23:55:00
7:15 PM,21.2,15.8,80,29.78,10.0,NW,5.8,-,N/A,Snow,Light Snow,320,2013-03-05 00:15:00
7:35 PM,21.2,15.8,80,29.78,10.0,NW,4.6,-,N/A,,Overcast,320,2013-03-05 00:35:00
7:55 PM,21.2,15.8,80,29.78,10.0,NW,4.6,-,N/A,,Overcast,310,2013-03-05 00:55:00
8:15 PM,21.7,15.8,78,29.78,10.0,WNW,4.6,-,N/A,,Overcast,300,2013-03-05 01:15:00
8:35 PM,22.1,15.8,77,29.79,10.0,NW,3.5,-,N/A,,Overcast,320,2013-03-05 01:35:00
8:55 PM,22.6,16.2,76,29.79,7.0,NW,4.6,-,N/A,Snow,Light Snow,320,2013-03-05 01:55:00
9:15 PM,22.6,16.2,76,29.79,5.0,WNW,3.5,-,N/A,Snow,Light Snow,290,2013-03-05 02:15:00
9:35 PM,22.5,16.5,78,29.80,10.0,Calm,Calm,-,N/A,Snow,Light Snow,0,2013-03-05 02:35:00
9:55 PM,22.6,16.5,77,29.81,7.0,Calm,Calm,-,N/A,Snow,Light Snow,0,2013-03-05 02:55:00
10:15 PM,22.5,16.7,79,29.81,10.0,Calm,Calm,-,N/A,,Overcast,0,2013-03-05 03:15:00
10:35 PM,22.6,16.7,78,29.81,10.0,Calm,Calm,-,N/A,Snow,Light Snow,0,2013-03-05 03:35:00
10:55 PM,22.6,17.2,80,29.82,7.0,Calm,Calm,-,N/A,Snow,Light Snow,0,2013-03-05 03:55:00
11:15 PM,22.6,17.6,81,29.82,7.0,Calm,Calm,-,N/A,Snow,Light Snow,0,2013-03-05 04:15:00
11:35 PM,22.6,17.6,81,29.82,7.0,Calm,Calm,-,N/A,Snow,Light Snow,0,2013-03-05 04:35:00
11:55 PM,22.6,17.6,81,29.83,10.0,Calm,Calm,-,N/A,,Overcast,0,2013-03-05 04:55:00